sat.trackr.live / text

‹ back to catalog

FOSSASAT-2E20 (TAT-O)

NORAD 63003 · 2025-009DN

PAYLOAD ACTIVE UNKNOWN

§ Identity

Operator
Country
SPN
Launch date
2025-01-14
Launch site
AFWTR
Launch vehicle
Mass (kg)
RCS (m²)

External: N2YO · Heavens-Above · Gunter

§ Orbital elements

Epoch: 2026-05-25T03:02:02.784768Z

Period
94.18 min
Inclination
97.3173°
Eccentricity
0.0004182
Mean motion
15.29046882 rev/d
Perigee alt
475.8 km
Apogee alt
481.5 km
Semi-major
6,856.8 km
B*
4.6065e-4
RAAN
221.3662°
Arg perigee
72.9671°
Mean anomaly
287.2027°
Rev number
13,298

§ Raw data

FOSSASAT-2E20 (TAT-O)1 63003U 25009DN  26145.12642112  .00012929  00000+0  46065-3 0  99912 63003  97.3173 221.3662 0004182  72.9671 287.2027 15.29046882132989

JSON: /api/v1/satellites/63003 · /tle

For live sub-satellite position, see the globe view (requires WebGL).

§ Visibility from observer

Set your observer location to see the next 7 days of passes ≥ 10°. The values pass through the URL so the page stays shareable.

No JS? Fill the form by hand. The geolocation button needs JavaScript.

§ Radio — SatNOGS DB

ModeDescriptionDownlinkUplink
LoRa Mode U - LoRa 401.700 MHz

1 transmitter · refreshed weekly from db.satnogs.org